Simultaneous Nadir Overpasses (SNOs) Predictions

Prediction of SNOs between NOAA-19 and METOP-C Satellite Orbit:

Table of predicted SNOs for the next 14.0 days since TLE Epoch: 2/1/2019
Index Date (NOAA-19) Time (NOAA-19) Lat,Lon (NOAA-19) SZA (NOAA-19 ) Date (METOP-C) Time (METOP-C) Lat,Lon (METOP-C) SZA (METOP-C ) Distance(km) Time Diff (sec)
1 02/09/2019 00:38:50 -78.96, 4.14 86.11 02/09/2019 00:39:58 -78.97, 4.04 86.10 2.30 68
2 02/09/2019 01:29:46 78.96, 171.42 93.89 02/09/2019 01:30:37 78.98, 171.46 93.91 2.41 51
3 02/09/2019 02:20:51 -78.96, -21.37 86.13 02/09/2019 02:21:20 -78.96, -21.38 86.13 0.84 29
4 02/09/2019 03:11:47 78.96, 145.90 93.86 02/09/2019 03:11:59 78.97, 146.03 93.88 2.93 12
5 02/09/2019 04:02:52 -78.97, -46.88 86.15 02/09/2019 04:02:42 -78.94, -46.81 86.17 2.87 10
6 02/09/2019 04:53:47 78.93, 120.64 93.82 02/09/2019 04:53:21 78.96, 120.61 93.84 2.65 26
7 02/09/2019 05:44:52 -78.93, -72.14 86.20 02/09/2019 05:44:04 -78.93, -72.24 86.21 2.07 48
8 02/09/2019 06:35:48 78.94, 95.12 93.80 02/09/2019 06:34:43 78.94, 95.18 93.80 1.51 65




NCC Satellite Simultaneous Nadir Overpasses (SNOs) Prediction Service
